Location: Friedrichshafen
(47.6598°N, 9.4819°E)
Time: 08:05:25
(UTC+01:00)

ISS - Pass Details

Date: 13 November 2017
Orbit: 402 x 407 km, 51.6° (Epoch: 22 November)

Event Time Altitude Azimuth Distance (km) Brightness Sun altitude
Exits shadow 05:02:32 35° 66° (ENE) 668 -2.3 -23.9°
Drops below altitude 10° 05:04:45 10° 91° (E) 1,455 0.1 -23.5°
Sets 05:06:52 0° 97° (E) 2,313 1.5 -23.1°
